• In Netherlands
  • List of Countries
  • For 7 days
  • Water Temperature
  • Satellite Maps
  • Weather Map
  • Weather Widgets
  • user-avatar
    Login

    Hourly Weather Lezhe

    Today, 17 August, Thursday

    Time Temperature Precipitation Wind Pressure Humidity
    00:00 +22°C° 0.2 mm 3 mps 738 mmHg 70%
    01:00 +22°C° 0 mm 3 mps 738 mmHg 69%
    02:00 +22°C° 0.1 mm 3 mps 737 mmHg 70%
    03:00 +22°C° 0.1 mm 3 mps 737 mmHg 71%
    04:00 +21°C° 0.1 mm 3 mps 737 mmHg 72%
    05:00 +24°C° 0 mm 3 mps 737 mmHg 67%
    06:00 +25°C° 0 mm 3 mps 738 mmHg 62%
    07:00 +28°C° 0 mm 3 mps 738 mmHg 55%
    08:00 +29°C° 0 mm 3 mps 738 mmHg 48%
    09:00 +31°C° 0 mm 3 mps 738 mmHg 41%
    10:00 +34°C° 0 mm 3 mps 738 mmHg 34%
    11:00 +34°C° 0.1 mm 3 mps 738 mmHg 33%
    12:00 +35°C° 0.1 mm 4 mps 737 mmHg 31%
    13:00 +35°C° 0 mm 4 mps 737 mmHg 32%
    14:00 +35°C° 0.1 mm 4 mps 737 mmHg 33%
    15:00 +34°C° 0.1 mm 5 mps 737 mmHg 34%
    16:00 +34°C° 0.1 mm 5 mps 737 mmHg 35%
    17:00 +32°C° 0.1 mm 4 mps 737 mmHg 39%
    18:00 +29°C° 0.1 mm 4 mps 738 mmHg 44%
    19:00 +27°C° 0.1 mm 3 mps 738 mmHg 48%
    20:00 +26°C° 0 mm 3 mps 738 mmHg 51%
    21:00 +25°C° 0 mm 3 mps 738 mmHg 55%
    22:00 +24°C° 0 mm 3 mps 738 mmHg 58%
    23:00 +24°C° 0 mm 3 mps 739 mmHg 59%

    Tomorrow, 18 August, Friday

    Time Temperature Precipitation Wind Pressure Humidity
    00:00 +22°C° 0 mm 3 mps 739 mmHg 60%
    01:00 +22°C° 0 mm 3 mps 739 mmHg 62%
    02:00 +21°C° 0 mm 3 mps 739 mmHg 62%
    03:00 +21°C° 0 mm 3 mps 739 mmHg 63%
    04:00 +21°C° 0 mm 3 mps 739 mmHg 63%
    05:00 +22°C° 0 mm 3 mps 739 mmHg 58%
    06:00 +25°C° 0 mm 3 mps 739 mmHg 53%
    07:00 +27°C° 0 mm 3 mps 739 mmHg 49%
    08:00 +29°C° 0 mm 3 mps 739 mmHg 42%
    09:00 +31°C° 0 mm 2 mps 739 mmHg 35%
    10:00 +34°C° 0 mm 2 mps 739 mmHg 29%
    11:00 +35°C° 0 mm 3 mps 739 mmHg 27%
    12:00 +36°C° 0 mm 3 mps 739 mmHg 26%
    13:00 +37°C° 0 mm 3 mps 738 mmHg 24%
    14:00 +36°C° 0 mm 4 mps 738 mmHg 25%
    15:00 +36°C° 0 mm 4 mps 738 mmHg 26%
    16:00 +35°C° 0 mm 4 mps 738 mmHg 27%
    17:00 +33°C° 0 mm 4 mps 737 mmHg 33%
    18:00 +29°C° 0 mm 3 mps 737 mmHg 39%
    19:00 +27°C° 0 mm 2 mps 737 mmHg 45%
    20:00 +26°C° 0 mm 2 mps 738 mmHg 44%
    21:00 +26°C° 0 mm 2 mps 738 mmHg 44%
    22:00 +25°C° 0 mm 2 mps 738 mmHg 43%
    23:00 +25°C° 0 mm 2 mps 738 mmHg 44%

    Day after tomorrow, 19 August, Saturday

    Time Temperature Precipitation Wind Pressure Humidity
    00:00 +24°C° 0 mm 2 mps 738 mmHg 44%
    01:00 +24°C° 0 mm 2 mps 738 mmHg 45%
    02:00 +23°C° 0 mm 2 mps 738 mmHg 46%
    03:00 +23°C° 0 mm 2 mps 738 mmHg 47%
    04:00 +23°C° 0 mm 2 mps 738 mmHg 48%
    05:00 +25°C° 0 mm 1 mps 738 mmHg 45%
    06:00 +26°C° 0 mm 1 mps 738 mmHg 42%
    07:00 +28°C° 0 mm 1 mps 738 mmHg 39%
    08:00 +30°C° 0 mm 1 mps 738 mmHg 35%
    09:00 +32°C° 0 mm 1 mps 738 mmHg 31%
    10:00 +34°C° 0 mm 1 mps 738 mmHg 27%
    11:00 +36°C° 0 mm 2 mps 738 mmHg 26%
    12:00 +36°C° 0 mm 3 mps 737 mmHg 26%
    13:00 +36°C° 0 mm 4 mps 737 mmHg 25%
    14:00 +36°C° 0 mm 3 mps 737 mmHg 27%
    15:00 +35°C° 0 mm 3 mps 736 mmHg 29%
    16:00 +34°C° 0 mm 3 mps 736 mmHg 31%
    17:00 +31°C° 0 mm 2 mps 736 mmHg 38%
    18:00 +28°C° 0 mm 1 mps 736 mmHg 44%
    19:00 +26°C° 0 mm 1 mps 736 mmHg 51%
    20:00 +25°C° 0 mm 1 mps 737 mmHg 51%
    21:00 +25°C° 0 mm 1 mps 737 mmHg 52%
    22:00 +25°C° 0 mm 1 mps 737 mmHg 52%
    23:00 +24°C° 0 mm 1 mps 737 mmHg 52%

    20 August, Sunday

    Time Temperature Precipitation Wind Pressure Humidity
    00:00 +24°C° 0 mm 1 mps 737 mmHg 52%
    01:00 +23°C° 0 mm 1 mps 737 mmHg 52%
    02:00 +23°C° 0 mm 2 mps 737 mmHg 53%
    03:00 +23°C° 0 mm 2 mps 736 mmHg 53%
    04:00 +23°C° 0 mm 2 mps 736 mmHg 53%
    05:00 +24°C° 0 mm 2 mps 737 mmHg 49%
    06:00 +26°C° 0 mm 2 mps 737 mmHg 45%
    07:00 +28°C° 0 mm 2 mps 737 mmHg 42%
    08:00 +30°C° 0 mm 2 mps 737 mmHg 37%
    09:00 +31°C° 0 mm 2 mps 737 mmHg 33%
    10:00 +34°C° 0 mm 2 mps 737 mmHg 29%
    11:00 +35°C° 0 mm 2 mps 737 mmHg 28%
    12:00 +35°C° 0 mm 2 mps 736 mmHg 28%
    13:00 +36°C° 0 mm 3 mps 736 mmHg 27%
    14:00 +35°C° 0 mm 3 mps 736 mmHg 28%
    15:00 +35°C° 0 mm 2 mps 736 mmHg 30%
    16:00 +34°C° 0 mm 2 mps 736 mmHg 31%
    17:00 +30°C° 0.1 mm 2 mps 736 mmHg 39%
    18:00 +28°C° 0.1 mm 1 mps 736 mmHg 47%
    19:00 +25°C° 0.1 mm 1 mps 736 mmHg 55%
    20:00 +24°C° 0.1 mm 1 mps 736 mmHg 61%
    21:00 +24°C° 0.1 mm 2 mps 737 mmHg 67%
    22:00 +23°C° 0.1 mm 2 mps 737 mmHg 73%
    23:00 +21°C° 0.2 mm 3 mps 737 mmHg 77%

    21 August, Monday

    Time Temperature Precipitation Wind Pressure Humidity
    00:00 +21°C° 0.2 mm 3 mps 737 mmHg 81%
    01:00 +20°C° 0.2 mm 3 mps 737 mmHg 85%
    02:00 +20°C° 0.3 mm 3 mps 737 mmHg 85%
    03:00 +19°C° 0.3 mm 3 mps 736 mmHg 85%
    04:00 +19°C° 0.3 mm 4 mps 736 mmHg 86%
    05:00 +20°C° 0 mm 4 mps 737 mmHg 80%
    06:00 +21°C° 0 mm 4 mps 737 mmHg 75%
    07:00 +22°C° 0 mm 4 mps 737 mmHg 69%
    08:00 +25°C° 0 mm 4 mps 737 mmHg 61%
    09:00 +27°C° 0 mm 4 mps 737 mmHg 52%
    10:00 +29°C° 0 mm 4 mps 737 mmHg 43%
    11:00 +29°C° 0 mm 4 mps 737 mmHg 41%
    12:00 +30°C° 0 mm 4 mps 737 mmHg 39%
    13:00 +32°C° 0 mm 5 mps 736 mmHg 36%
    14:00 +30°C° 0 mm 5 mps 736 mmHg 36%
    15:00 +30°C° 0 mm 5 mps 736 mmHg 36%
    16:00 +30°C° 0 mm 5 mps 736 mmHg 37%
    17:00 +28°C° 0 mm 5 mps 736 mmHg 41%
    18:00 +26°C° 0 mm 5 mps 737 mmHg 46%
    19:00 +23°C° 0 mm 4 mps 737 mmHg 51%
    20:00 +22°C° 0 mm 4 mps 737 mmHg 53%
    21:00 +21°C° 0 mm 4 mps 737 mmHg 55%
    22:00 +20°C° 0 mm 4 mps 738 mmHg 56%
    23:00 +19°C° 0 mm 4 mps 738 mmHg 57%

    22 August, Tuesday

    Time Temperature Precipitation Wind Pressure Humidity
    00:00 +18°C° 0 mm 4 mps 738 mmHg 58%
    01:00 +18°C° 0 mm 4 mps 738 mmHg 58%
    02:00 +17°C° 0 mm 4 mps 738 mmHg 58%
    03:00 +17°C° 0 mm 4 mps 738 mmHg 58%
    04:00 +15°C° 0 mm 4 mps 738 mmHg 58%
    05:00 +18°C° 0 mm 4 mps 738 mmHg 53%
    06:00 +20°C° 0 mm 4 mps 739 mmHg 48%
    07:00 +21°C° 0 mm 4 mps 739 mmHg 43%
    08:00 +23°C° 0 mm 4 mps 739 mmHg 38%
    09:00 +26°C° 0 mm 4 mps 739 mmHg 33%
    10:00 +28°C° 0 mm 4 mps 739 mmHg 28%
    11:00 +29°C° 0 mm 4 mps 739 mmHg 26%
    12:00 +30°C° 0 mm 4 mps 738 mmHg 23%
    13:00 +33°C° 0 mm 4 mps 738 mmHg 21%
    14:00 +32°C° 0 mm 4 mps 738 mmHg 21%
    15:00 +32°C° 0 mm 4 mps 738 mmHg 22%
    16:00 +32°C° 0 mm 5 mps 737 mmHg 22%
    17:00 +28°C° 0 mm 4 mps 738 mmHg 28%
    18:00 +26°C° 0 mm 4 mps 738 mmHg 34%
    19:00 +22°C° 0 mm 3 mps 738 mmHg 40%
    20:00 +21°C° 0 mm 3 mps 738 mmHg 41%
    21:00 +20°C° 0 mm 3 mps 738 mmHg 42%
    22:00 +20°C° 0 mm 3 mps 739 mmHg 43%
    23:00 +19°C° 0 mm 3 mps 739 mmHg 44%
    Show more